Weather Roundup
Issued by NWS Chicago, IL

Home | Current Version | Previous Version | Graphics & Text | Print | Product List | Glossary On
Versions: 1 2 3 4 5 6 7 8 9 10 11 12 13 14 15 16 17 18 19 20 21 22 23 24 25 26 27 28 29 30 31 32 33 34 35 36 37 38 39 40 41 42 43 44 45 46 47 48 49 50
000
NZUS59 KLOT 291008
HRRLOT

CHICAGO AREA WEATHER ROUNDUP
NATIONAL WEATHER SERVICE CHICAGO/ROMEOVILLE IL
500 AM CDT FRI APR 29 2016

NOTE: "FAIR" INDICATES FEW OR NO CLOUDS BELOW 12,000 FEET WITH NO
SIGNIFICANT WEATHER AND/OR OBSTRUCTIONS TO VISIBILITY.

* THESE STATIONS ARE NOT UNDER NWS QUALITY CONTROL. THEY ALSO MAY NOT
  REPORT WEATHER SUCH AS PRECIPITATION OR FOG.

ILZ005-006-012>014-019>023-291100-
NORTHEAST ILLINOIS

CITY           SKY/WX    TMP DP  RH WIND       PRES   REMARKS
OHARE          CLOUDY    42  41  96 N10       30.02S
MIDWAY         CLOUDY    45  41  86 NW6       30.02S FOG
AURORA         CLOUDY    43  41  93 NW7       30.04R FOG
LANSING*       CLOUDY    45  43  93 N5        30.02R FOG
JOLIET*        CLOUDY    46  44  92 NW3       30.04R FOG
WAUKEGAN       CLOUDY    40  39  97 N6        30.04R
DUPAGE AIRPORT CLOUDY    43  39  86 N10       30.02S
WHEELING       CLOUDY    42  41  96 N9        30.04S
KANKAKEE*      CLOUDY    46  43  88 CALM      30.04R FOG
MORRIS*        CLOUDY    45  42  91 CALM      30.04R FOG
LEWIS AIRPORT* CLOUDY    44  41  91 N7        30.03R FOG
$$

WIZ051-052-058>065-066-070>072-291100-
SOUTHEAST WISCONSIN

CITY           SKY/WX    TMP DP  RH WIND       PRES   REMARKS
MILWAUKEE      CLOUDY    40  38  93 N5        30.05R
KENOSHA*       CLOUDY    40  38  93 N7        30.05R
RACINE*        CLOUDY    40  37  89 N7        30.06S
BURLINGTON     CLOUDY    39  38  99 N3        30.05S
WAUKESHA       CLOUDY    36  36 100 N3        30.06S
WEST BEND      CLOUDY    37  36  93 CALM      30.06R
$$

INZ001>003-010>013-019-020-291100-
NORTHWEST INDIANA

CITY           SKY/WX    TMP DP  RH WIND       PRES   REMARKS
GARY*          NOT AVBL
MICHIGAN CITY* NOT AVBL
RENSSELAER*    NOT AVBL
VALPARAISO     CLOUDY    45  44  97 N6        30.01S FOG
$$

LMZ740>746-291100-
SOUTHERN LAKE MICHIGAN

STATION/POSITION TIME  SKY/WX   TEMP WIND        PRES    VSBY
                                AIR  DIR/SP/G
                 (UTC)          (F)  (DEG/KT/KT) (MB)    (MI)
HARRISON CRIB    0900            43  340/ 18/ 19   N/A
BURNHAM HARBOR   1000            44  320/  7/ 10   N/A
CALUMET HARBOR   0900            44  320/  5/  9 1015.6R
BURNS HARBOR     0915            43  320/  7/ 11 1016.9R
MICHIGAN CITY    0900            43  240/  7/  8   N/A
$$

ABBREVIATIONS USED IN REMARKS
   TC - TEMPERATURE IN CELSIUS
  WCI - WIND CHILL INDEX
   HX - HEAT INDEX
  VSB - VISIBILITY
$$



USA.gov is the U.S. government's official web portal to all federal, state and local government web resources and services.